Preview of NWS' New Version of Forecast
This preview is not operational and should not be used for support decisions.

Regional Weather Roundup (RWR)

Issued by National Weather Service (NWS)

                            
000
ASCA42 TJSJ 171610
RWRPR 
PUERTO RICO/U.S. VIRGIN ISLANDS HOURLY WEATHER ROUNDUP
NATIONAL WEATHER SERVICE SAN JUAN PR
1200 PM AST MON JUN 17 2019

PRZ001>002-007>008-010-171700-
PUERTO RICO
  
CITY           SKY/WX    TMP DP  RH WIND       PRES   REMARKS
SAN JUAN LMM   LGT RAIN  84  75  74 NE17      30.10S HX  92           
AGUADILLA      MOSUNNY   86  77  74 E17G23    30.10F HX  97           
CEIBA          CLOUDY    88  75  66 E13       30.12S HX  97           
$$

VIZ001>002-171700-
U.S. VIRGIN ISLANDS
  
CITY           SKY/WX    TMP DP  RH WIND       PRES   REMARKS
CHARLOTTE AMA  LGT RAIN  88  75  66 E13       30.09F HX  97           
CHRISTIANSTED  MOSUNNY   88  75  66 E20       30.10R HX  97           
$$

HOURLY WEATHER ROUNDUP FOR THE NEWS MEDIA
  
CITY           SKY/WX    TMP DP  RH WIND       PRES   REMARKS
ORLANDO        PTSUNNY   88  73  61 SE12      30.08R HX  95           
NEW YORK       PTSUNNY   75  67  76 SE3       29.99R                  
NEWARK         CLOUDY    75  65  70 E3        29.98R                  
CHICAGO        CLOUDY    63  55  75 N9        30.01F                  
HARTFORD       FAIR      74  57  55 E5        29.97R                  
BOSTON         PTSUNNY   70  56  61 E10       29.98R                  
DALLAS         PTSUNNY   76  65  68 CALM      29.95S                  
PHILADELPHIA   PTSUNNY   75  66  73 S5        29.99R                  
LOS ANGELES    CLOUDY    65  58  78 CALM      29.90R                  
WASHINGTON DC  PTSUNNY   87  64  46 W9        30.00R